Weather History for Kirksville, MO

Change the Weather History Date:

Wednesday, March 27, 2013

  Actual Average Record
Temperature  
Mean Temperature 32 °F 45 °F  
Max Temperature 45 °F 56 °F 84 °F (1945)
Min Temperature 18 °F 34 °F 16 °F (1964)
Degree Days  
Heating Degree Days 33 20  
Month to date heating degree days 907 678  
Since 1 July heating degree days 5287 5211  
Cooling Degree Days 0 0  
Month to date cooling degree days 0 0  
Year to date cooling degree days 0 0  
Moisture  
Dew Point 23 °F    
Average Humidity 73    
Maximum Humidity 92    
Minimum Humidity 53    
Precipitation  
Precipitation 0.00 in 0.07 in 1.20 in (1961)
Month to date precipitation 3.20 2.22  
Year to date precipitation 8.65 5.02  
Sea Level Pressure  
Sea Level Pressure 30.36 in    
Wind  
Wind Speed 4 mph (SSE)    
Max Wind Speed 10 mph    
Max Gust Speed 15 mph    
Visibility 8 miles    
Events Fog    
T = Trace of Precipitation, MM = Missing Value Source: NWS Daily Summary

Daily Weather History Graph

Daily Weather History Graph

Search for Another Location

Airport:

Trip Planner

Search our weather history database for the weather conditions in past years. The results will help you decide how hot, cold, wet, or windy it might be!

Date:

Astronomy

Mar. 27, 2013 Rise Set
Actual Time 7:01 AM CDT 7:29 PM CDT
Civil Twilight 6:34 AM CDT 7:56 PM CDT
Nautical Twilight 6:02 AM CDT 8:29 PM CDT
Astronomical Twilight 5:29 AM CDT 9:01 PM CDT
Moon 8:14 PM CDT (3/27) 6:53 AM CDT (3/27)
Length of Visible Light 13h 22m
Length of Day
12h 27m
Full, 100% of the Moon is Illuminated
Mar 27
Full
Apr 2
Last Quarter
Apr 10
New
Apr 18
First Quarter
Apr 25
Full

Hourly Weather History & Observations

Time (CDT) Temp. Windchill Dew Point Humidity Pressure Visibility Wind Dir Wind Speed Gust Speed Precip Events Conditions
12:55 AM 21.0 °F - 18.0 °F 88% 30.39 in 10.0 mi Calm Calm - N/A   Partly Cloudy
1:55 AM 25.0 °F - 19.0 °F 78% 30.37 in 10.0 mi Calm Calm - N/A   Clear
2:55 AM 23.0 °F - 19.0 °F 85% 30.36 in 10.0 mi Calm Calm - N/A   Clear
3:55 AM 21.0 °F - 18.0 °F 88% 30.37 in 10.0 mi Calm Calm - N/A   Clear
4:55 AM 21.0 °F - 18.0 °F 88% 30.36 in 10.0 mi Calm Calm - N/A   Clear
5:55 AM 21.9 °F - 19.9 °F 92% 30.37 in 8.0 mi Calm Calm - N/A   Clear
6:55 AM 19.0 °F - 17.1 °F 92% 30.38 in 6.0 mi Calm Calm - N/A   Clear
7:17 AM 19.4 °F - 17.6 °F 93% 30.33 in 2.0 mi Calm Calm - N/A   Clear
7:26 AM 19.4 °F - 17.6 °F 93% 30.34 in 0.8 mi Calm Calm - N/A   Clear
7:38 AM 19.4 °F - 17.6 °F 93% 30.34 in 0.5 mi Calm Calm - N/A Fog Light Freezing Fog
7:45 AM 21.2 °F 16.4 °F 19.4 °F 93% 30.34 in 1.2 mi South 3.5 mph - N/A   Clear
7:51 AM 21.2 °F - 19.4 °F 93% 30.34 in 3.0 mi Calm Calm - N/A   Clear
7:55 AM 21.9 °F - 19.9 °F 92% 30.40 in 4.0 mi Calm Calm - N/A   Clear
8:55 AM 30.0 °F 25.2 °F 24.1 °F 79% 30.40 in 10.0 mi SSW 4.6 mph - N/A   Clear
9:55 AM 34.0 °F 28.0 °F 24.1 °F 67% 30.41 in 10.0 mi South 6.9 mph - N/A   Clear
10:55 AM 36.0 °F 30.3 °F 25.0 °F 64% 30.41 in 10.0 mi SSE 6.9 mph - N/A   Clear
11:55 AM 37.9 °F 33.5 °F 25.0 °F 60% 30.41 in 10.0 mi South 5.8 mph - N/A   Clear
12:55 PM 39.0 °F 35.7 °F 25.0 °F 57% 30.40 in 10.0 mi South 4.6 mph - N/A   Clear
1:55 PM 39.9 °F 34.5 °F 28.0 °F 63% 30.36 in 10.0 mi SE 8.1 mph - N/A   Clear
2:55 PM 43.0 °F 38.2 °F 28.9 °F 58% 30.34 in 10.0 mi SE 8.1 mph - N/A   Clear
3:55 PM 44.1 °F 40.8 °F 28.9 °F 55% 30.32 in 10.0 mi SSE 5.8 mph - N/A   Clear
4:55 PM 44.1 °F 40.1 °F 28.0 °F 53% 30.31 in 10.0 mi ESE 6.9 mph - N/A   Clear
5:55 PM 42.1 °F 36.6 °F 30.0 °F 62% 30.32 in 10.0 mi SSE 9.2 mph - N/A   Mostly Cloudy
6:55 PM 39.9 °F 35.8 °F 30.0 °F 68% 30.32 in 10.0 mi SSE 5.8 mph - N/A   Overcast
7:55 PM 39.0 °F 34.0 °F 28.9 °F 67% 30.32 in 10.0 mi ESE 6.9 mph - N/A   Overcast
8:55 PM 39.0 °F 36.8 °F 28.9 °F 67% 30.34 in 10.0 mi SSW 3.5 mph - N/A   Overcast
9:55 PM 37.9 °F 35.5 °F 28.0 °F 68% 30.35 in 10.0 mi SSE 3.5 mph - N/A   Overcast
10:55 PM 37.0 °F 33.3 °F 28.9 °F 73% 30.35 in 10.0 mi ESE 4.6 mph - N/A   Overcast
11:55 PM 37.0 °F 33.3 °F 28.0 °F 70% 30.35 in 10.0 mi ESE 4.6 mph - N/A   Overcast